Location: Berg
(48.4333°N, 13.9167°E)
Time: 07:27:35
(UTC+00:00)

ATLAS 3B R/B - Pass Details

Date: 18 September 2020
Orbit: 1016 x 1179 km, 63.8° (Epoch: 04 October)

Event Time Altitude Azimuth Distance (km) Brightness Sun altitude
Rises 21:22:28 0° 317° (NW) 3,837 6.6 -36.0°
Reaches altitude 10° 21:25:07 10° 314° (NW) 2,901 5.7 -36.2°
Enters shadow 21:30:03 45° 284° (WNW) 1,455 3.5 -36.6°
